Jaipur / Sanganer, India

3:21 PM IST on December 06, 2016 (GMT +0530)
Jaipur

Weather History for VIJP - November, 2011

Change the Weather History Date:

Tuesday, November 8, 2011

  Actual Average Record
Temperature  
Mean Temperature 75 °F -  
Max Temperature 90 °F - - ()
Min Temperature 60 °F - - ()
Cooling Degree Days 10    
Growing Degree Days 25 (Base 50)    
Moisture  
Dew Point 47 °F    
Average Humidity 36    
Maximum Humidity 63    
Minimum Humidity 14    
Precipitation  
Precipitation 0.00 in - - ()
Sea Level Pressure  
Sea Level Pressure 29.98 in    
Wind  
Wind Speed 1 mph ()    
Max Wind Speed 7 mph    
Max Gust Speed -    
Visibility 1.8 miles    
Events      
T = Trace of Precipitation, MM = Missing Value Source: Averaged Metar Reports

Daily Weather History Graph

Daily Weather History Graph

Search for Another Location

Airport or City:

Trip Planner

Search our weather history database for the weather conditions in past years. The results will help you decide how hot, cold, wet, or windy it might be!

Date:

Astronomy

Nov. 08, 2011 Rise Set
Actual Time 6:40 AM IST 5:39 PM IST
Civil Twilight 6:16 AM IST 6:03 PM IST
Nautical Twilight 5:48 AM IST 6:31 PM IST
Astronomical Twilight 5:21 AM IST 6:59 PM IST
Moon 3:59 PM IST (11/8) 4:22 AM IST (11/8)
Length of Visible Light 11h 47m
Length of Day
10h 59m
Waxing Gibbous, 94% of the Moon is Illuminated
Nov 8
Waxing Gibbous
Nov 11
Full
Nov 18
Last Quarter
Nov 25
New
Dec 2
First Quarter

Hourly Weather History & Observations

Time (IST) Temp. Dew Point Humidity Pressure Visibility Wind Dir Wind Speed Gust Speed Precip Events Conditions
12:00 AM 69.8 °F 42.8 °F 38% 29.98 in 1.9 mi Calm Calm - N/A   Haze
1:00 AM 75.2 °F 42.8 °F 31% 29.98 in 1.9 mi NE 6.9 mph - N/A   Haze
2:00 AM 68.0 °F 44.6 °F 43% 29.98 in 1.9 mi Calm Calm - N/A   Haze
2:30 AM 69 °F 45 °F 31% 29.91 in 1 mi Calm Calm - -   Haze
3:00 AM 66.2 °F 46.4 °F 49% 29.98 in 1.9 mi Calm Calm - N/A   Haze
4:00 AM 62.6 °F 48.2 °F 59% 29.98 in 1.9 mi Calm Calm - N/A   Haze
5:00 AM 62.6 °F 50.0 °F 63% 29.98 in 1.9 mi Calm Calm - N/A   Haze
5:30 AM 64 °F 47 °F 43% 29.95 in 1 mi Calm Calm - -   Haze
7:00 AM 60.8 °F 46.4 °F 59% 30.01 in 1.2 mi Calm Calm - N/A   Smoke
8:00 AM 69.8 °F 51.8 °F 53% 30.04 in 1.2 mi Calm Calm - N/A   Smoke
9:00 AM 77.0 °F 48.2 °F 36% 30.06 in 1.6 mi Calm Calm - N/A   Smoke
11:00 AM 84.2 °F 46.4 °F 27% 30.06 in 1.9 mi Variable 1.2 mph - N/A   Haze
11:30 AM 85 °F 43 °F 14% 29.96 in 2 mi South 3.5 mph - -   Haze
12:00 PM 84.2 °F 46.4 °F 27% 30.04 in 2.5 mi SSE 4.6 mph - N/A   Haze
1:00 PM 89.6 °F 46.4 °F 22% 30.01 in 2.5 mi Variable 1.2 mph - N/A   Haze
2:00 PM 87.8 °F 46.4 °F 24% 29.98 in 2.5 mi WSW 4.6 mph - N/A   Haze
2:30 PM 89 °F 46 °F 14% 29.86 in 2 mi NW 6.9 mph - -   Haze
3:00 PM 87.8 °F 46.4 °F 24% 29.95 in 2.5 mi Variable 3.5 mph - N/A   Haze
4:00 PM 87.8 °F 46.4 °F 24% 29.95 in 2.5 mi Variable 5.8 mph - N/A   Haze
5:00 PM 86.0 °F 48.2 °F 27% 29.95 in 2.5 mi Calm Calm - N/A   Haze
5:30 PM 84 °F 51 °F 22% 29.88 in 2 mi Calm Calm - -   Haze
7:00 PM 77.0 °F 51.8 °F 41% 29.98 in 1.2 mi Calm Calm - N/A   Smoke
8:00 PM 77.0 °F 48.2 °F 36% 29.98 in 1.2 mi Calm Calm - N/A   Smoke
9:00 PM 73.4 °F 50.0 °F 44% 30.01 in 1.2 mi Calm Calm - N/A   Smoke
10:00 PM 73.4 °F 46.4 °F 38% 30.01 in 1.6 mi Calm Calm - N/A   Smoke
11:30 PM 71 °F 49 °F 34% 29.94 in 1 mi Calm Calm - -   Smoke